EW2795 Weather Reports


Display with metric or nautical units.
time (UTC)temp
F
wind
direction
speed
MPH
gust
MPH
rain 1hr
in
rain 24hr
in
rain mn
in
humidity
%
barometer
mb
20260508220018 63 245 5.0 0.0 0.00 0.00 0.00 48 1007.3
20260508214516 63 249 10.0 0.0 0.00 0.00 0.00 48 1007.2
20260508213059 64 235 8.0 0.0 0.00 0.00 0.00 53 1007.2
20260508211546 64 236 7.0 0.0 0.00 0.00 0.00 53 1007.3
20260508210040 64 206 6.0 0.0 0.00 0.00 0.00 53 1007.2
20260508204535 64 227 6.0 0.0 0.00 0.00 0.00 54 1007.3
20260508203032 63 241 5.0 0.0 0.00 0.00 0.00 59 1007.6
20260508201518 63 229 5.0 0.0 0.00 0.00 0.00 58 1007.9
20260508200014 63 230 5.0 0.0 0.00 0.00 0.00 58 1008.2
20260508194508 62 221 4.0 0.0 0.00 0.00 0.00 58 1008.4
20260508193117 62 200 3.0 0.0 0.00 0.00 0.00 61 1008.5
20260508191552 62 212 5.0 0.0 0.00 0.00 0.00 59 1008.8
20260508190103 63 206 5.0 0.0 0.00 0.00 0.00 57 1008.8
20260508184541 62 213 3.0 0.0 0.00 0.00 0.00 59 1009.1
20260508183024 62 208 3.0 0.0 0.00 0.00 0.00 57 1009.4
20260508181510 61 215 4.0 0.0 0.00 0.00 0.00 60 1009.7
20260508180057 61 207 3.0 0.0 0.00 0.00 0.00 62 1010.1
20260508174541 59 251 3.0 0.0 0.00 0.00 0.00 60 1010.4
20260508173034 58 253 3.0 0.0 0.00 0.00 0.00 63 1011.0
20260508171527 57 245 3.0 0.0 0.00 0.00 0.00 65 1011.3
20260508170010 56 213 3.0 0.0 0.00 0.00 0.00 64 1011.6
20260508164559 56 211 4.0 0.0 0.00 0.00 0.00 64 1011.7
20260508164501 56 225 4.0 0.0 0.00 0.00 0.00 64 1011.7
20260508163100 57 254 4.0 0.0 0.00 0.00 0.00 64 1011.5
20260508161550 56 234 5.0 0.0 0.00 0.00 0.00 66 1011.9
20260508160025 54 245 4.0 0.0 0.00 0.00 0.00 66 1012.1
20260508154520 53 231 3.0 0.0 0.00 0.00 0.00 68 1012.1
20260508153030 53 230 3.0 0.0 0.00 0.00 0.00 69 1012.2
20260508151507 53 225 4.0 0.0 0.00 0.00 0.00 69 1012.2
20260508150006 53 210 4.0 0.0 0.00 0.00 0.00 68 1012.2
20260508144555 53 213 5.0 0.0 0.00 0.00 0.00 68 1012.2
20260508144501 53 223 5.0 0.0 0.00 0.00 0.00 68 1012.2
20260508143103 53 219 4.0 0.0 0.00 0.00 0.00 68 1012.0
20260508141539 53 203 4.0 0.0 0.00 0.00 0.00 68 1012.1
20260508140021 53 236 4.0 0.0 0.00 0.00 0.00 68 1012.2
20260508134515 53 221 4.0 0.0 0.00 0.00 0.00 67 1012.2
20260508133005 53 215 4.0 0.0 0.00 0.00 0.00 69 1012.0
20260508131547 52 215 3.0 0.0 0.00 0.00 0.00 71 1012.0
20260508130041 51 262 5.0 0.0 0.00 0.00 0.00 71 1012.2
20260508124532 50 217 4.0 0.0 0.00 0.00 0.00 72 1012.2
20260508123022 49 208 4.0 0.0 0.00 0.00 0.00 73 1012.1
20260508121507 49 205 4.0 0.0 0.00 0.00 0.00 75 1011.9
20260508120112 48 205 4.0 0.0 0.00 0.00 0.00 74 1012.0
20260508114539 47 232 3.0 0.0 0.00 0.00 0.00 76 1011.7
20260508113029 46 215 3.0 0.0 0.00 0.00 0.00 78 1011.7
20260508111523 45 218 2.0 0.0 0.00 0.00 0.00 80 1011.8
20260508110029 44 211 2.0 0.0 0.00 0.00 0.00 80 1011.7
20260508104519 44 210 2.0 0.0 0.00 0.00 0.00 81 1011.5
20260508103026 44 210 2.0 0.0 0.00 0.00 0.00 82 1011.4
20260508101508 43 213 1.0 0.0 0.00 0.00 0.00 85 1011.3
20260508100130 42 237 0.0 0.0 0.00 0.00 0.00 87 1011.2
20260508100002 42 237 0.0 0.0 0.00 0.00 0.00 87 1011.2
20260508094548 42 238 0.0 0.0 0.00 0.00 0.00 88 1011.3
20260508093043 42 240 1.0 0.0 0.00 0.00 0.00 90 1011.5
20260508091530 41 242 0.0 0.0 0.00 0.00 0.00 89 1011.6
20260508090018 42 242 0.0 0.0 0.00 0.00 0.00 89 1011.6
20260508084509 42 343 0.0 0.0 0.00 0.00 0.00 88 1011.6
20260508083052 43 343 0.0 0.0 0.00 0.00 0.00 86 1011.7
20260508081601 44 342 0.0 0.0 0.00 0.00 0.00 84 1011.7
20260508080035 45 342 1.0 0.0 0.00 0.00 0.00 83 1011.7
20260508074523 46 250 0.0 0.0 0.00 0.00 0.00 82 1011.5
20260508073014 47 250 0.0 0.0 0.00 0.00 0.00 81 1011.5
20260508071509 47 250 0.0 0.0 0.00 0.00 0.00 78 1011.7
20260508070055 48 250 0.0 0.0 0.00 0.00 0.00 78 1011.7
20260508064553 48 250 0.0 0.0 0.00 0.00 0.00 77 1011.9
20260508063048 48 250 1.0 0.0 0.00 0.00 0.00 74 1012.5
20260508061534 48 227 1.0 0.0 0.00 0.00 0.00 74 1012.5
20260508060037 49 265 4.0 0.0 0.00 0.00 0.00 74 1012.8
20260508054540 46 273 0.0 0.0 0.00 0.00 0.00 85 1012.9
20260508053006 46 273 0.0 0.0 0.00 0.00 0.00 84 1012.3
20260508051600 46 273 0.0 0.0 0.00 0.00 0.00 85 1012.0
20260508051502 46 273 0.0 0.0 0.00 0.00 0.00 85 1012.0
20260508050054 46 273 0.0 0.0 0.00 0.00 0.00 85 1011.9
20260508044548 46 273 0.0 0.0 0.00 0.00 0.00 84 1012.1
20260508043038 46 273 0.0 0.0 0.00 0.00 0.00 83 1012.3
20260508041528 46 273 0.0 0.0 0.00 0.00 0.00 82 1012.2
20260508040018 46 273 0.0 0.0 0.00 0.00 0.00 79 1012.3
20260508034511 46 273 0.0 0.0 0.00 0.00 0.00 79 1012.4
20260508033049 46 273 0.0 0.0 0.00 0.00 0.00 78 1012.3
20260508031552 46 273 0.0 0.0 0.00 0.00 0.00 77 1012.6
20260508030040 47 273 0.0 0.0 0.00 0.00 0.00 76 1012.2
20260508024618 47 273 0.0 0.0 0.00 0.00 0.00 74 1012.2
20260508024503 47 273 0.0 0.0 0.00 0.00 0.00 74 1012.2
20260508023052 47 273 0.0 0.0 0.00 0.00 0.00 74 1012.2
20260508021548 47 273 0.0 0.0 0.00 0.00 0.00 70 1012.2
20260508020048 48 273 0.0 0.0 0.00 0.00 0.00 69 1012.3
20260508014537 49 273 0.0 0.0 0.00 0.00 0.00 69 1012.3
20260508013032 48 258 1.0 0.0 0.00 0.00 0.00 67 1012.2
20260508011530 48 281 0.0 0.0 0.00 0.00 0.00 67 1012.0
20260508010026 49 281 0.0 0.0 0.00 0.00 0.00 67 1012.0
20260508004517 50 281 0.0 0.0 0.00 0.00 0.00 63 1011.9
20260508003055 51 281 0.0 0.0 0.00 0.00 0.00 59 1011.8
20260508001548 52 281 0.0 0.0 0.00 0.00 0.00 55 1011.7
20260508000038 54 281 0.0 0.0 0.00 0.00 0.00 50 1011.4
20260507234521 55 253 2.0 0.0 0.00 0.00 0.00 47 1011.6
20260507233015 56 223 3.0 0.0 0.00 0.00 0.00 44 1011.4
20260507231512 57 242 2.0 0.0 0.00 0.00 0.00 44 1011.3
20260507230004 56 39 3.0 0.0 0.00 0.00 0.00 43 1011.5
20260507224559 57 271 4.0 0.0 0.00 0.00 0.00 45 1011.7
20260507224503 57 257 4.0 0.0 0.00 0.00 0.00 46 1011.6
20260507223057 58 283 3.0 0.0 0.00 0.00 0.00 45 1011.7
20260507223001 58 280 3.0 0.0 0.00 0.00 0.00 45 1011.7
20260507221557 57 240 3.0 0.0 0.00 0.00 0.00 45 1011.8
20260507221501 57 287 3.0 0.0 0.00 0.00 0.00 45 1011.9